Terminal Aerodrome Forecast
Issued by NWS

Home | Current Version | Previous Version | Graphics & Text | Print | Product List | Glossary On
Versions: 1 2 3 4 5 6 7 8 9 10 11 12 13 14 15 16 17 18 19 20 21 22 23 24 25 26 27 28 29 30 31 32 33 34 35 36
000
FTUS43 KLOT 160000 AAA
TAFDPA
TAF AMD
KDPA 160012Z 1600/1624 02006KT P6SM FEW015 SCT025 BKN040
      TEMPO 1600/1601 SCT015 BKN025 BKN040
     FM160200 34004KT P6SM SKC
      TEMPO 1608/1612 5SM BR BCFG
     FM161700 31006KT P6SM SCT030=

USA.gov is the U.S. government's official web portal to all federal, state and local government web resources and services.